Presure
167 173 176 178 168 180 167 172 180 172 175 183 188 178 185 184 179 220 226 245 262 269 264 289 293 288 286 295 295 311 297 283 283 307 307 291 291 216 283 285 299 317 315
175 172 164 172 175 181 178 179 182 190 189 183 187 180 173 192 195 210 257 259 251 285 302 292 283 282 291 306 301 293 280 314 300 292 283 295 306 293 312 293 290 300 316
179 181 172 176 183 179 176 165 182 181 174 194 186 203 223 200 223 261 269 254 296 308 293 278 281 280 292 295 287 283 288 281 294 300 301 311 344 333 334 346 345 296 307
176 178 172 188 186 176 178 182 185 190 180 144 169 181 224 230 267 276 283 281 284 270 279 274 285 282 288 288 292 277 284 281 286 293 319 344 355 383 405 405 366 352 352
175 188 175 175 186 181 183 190 188 180 175 203 199 237 255 259 261 231 265 264 270 288 276 285 279 289 291 280 278 284 280 278 292 325 336 356 399 401 394 394 400 405 397
173 183 176 177 188 194 158 179 181 159 157 237 238 255 276 267 293 263 266 273 265 286 268 268 286 289 274 284 274 277 280 278 329 342 355 397 394 389 390 391 398 406 412
169 177 177 179 187 156 182 171 181 231 247 257 268 272 275 236 245 258 250 262 287 277 277 281 282 272 281 273 271 272 278 307 337 353 386 389 389 385 386 399 402 405 412
183 180 181 218 212 224 167 232 237 250 257 275 250 258 255 265 248 250 268 295 277 266 276 276 273 273 275 271 269 273 283 331 345 384 382 382 385 390 412 413 404 402 398
219 209 186 242 232 271 241 262 246 267 234 256 262 254 261 252 257 248 290 279 277 270 275 274 269 276 274 266 270 277 320 342 377 381 377 379 387 407 398 391 382 377 369
237 238 234 241 252 276 262 249 244 276 254 253 253 264 247 260 246 291 293 271 268 275 271 266 271 270 268 269 267 300 336 365 385 377 371 375 395 383 379 380 372 359 355
252 257 264 152 250 257 262 272 254 252 250 252 257 248 259 247 304 288 281 275 275 281 261 265 267 269 270 269 287 319 351 393 381 380 374 390 375 365 361 360 357 348 340
132 254 268 259 270 266 271 265 254 258 252 252 253 259 261 298 281 287 281 276 273 265 264 255 266 268 270 293 305 347 389 392 379 381 380 380 361 351 346 347 339 378 383
284 271 267 286 259 265 259 261 264 254 266 265 260 300 288 286 292 271 270 264 265 264 265 255 259 265 273 304 342 386 390 390 382 384 390 361 352 339 339 328 391 363 503
313 292 278 278 271 292 288 276 273 274 285 320 300 319 307 276 270 266 260 263 267 261 257 260 264 285 300 338 394 390 390 387 387 388 369 350 343 346 327 383 354 493 486
318 304 301 300 305 303 308 310 310 329 319 274 280 282 272 264 263 264 253 264 255 256 254 276 281 299 339 394 388 389 389 383 378 379 356 347 333 349 368 396 457 485 499
303 295 306 311 307 306 350 327 306 297 292 282 275 266 258 264 253 254 262 252 255 268 264 289 302 376 398 395 389 386 383 381 381 358 342 340 334 321 404 387 477 491 483
314 322 330 327 332 317 301 288 283 278 267 265 261 262 256 247 260 252 256 265 271 283 291 304 412 403 392 392 391 389 383 377 362 346 335 338 339 360 351 459 477 478 470
309 329 315 299 290 287 282 272 264 261 256 259 252 250 257 247 251 262 257 267 287 294 309 416 405 398 402 401 388 375 368 357 343 337 334 346 350 410 379 458 482 462 454
293 284 279 273 272 265 262 258 253 251 247 250 251 248 245 256 261 269 283 290 299 352 409 402 395 392 383 367 358 358 349 341 336 331 343 348 402 444 428 460 472 452 437
277 273 263 264 263 258 252 250 246 247 251 257 264 263 266 268 278 285 292 307 420 419 408 391 371 359 350 344 340 337 335 331 333 341 396 400 423 429 431 463 465 436 420
264 258 258 252 250 243 242 242 240 240 242 249 263 267 275 281 287 298 402 414 410 393 370 352 338 333 327 328 324 328 335 341 399 405 425 425 431 413 445 473 451 410 361
252 251 246 241 240 253 254 244 242 239 245 257 266 275 279 288 306 409 407 393 371 349 336 326 323 322 318 335 383 385 387 393 407 403 410 424 423 409 441 466 420 370 355
239 240 239 241 245 247 245 243 242 252 260 267 271 279 290 375 408 402 386 360 341 330 324 320 317 318 360 379 381 389 373 380 394 414 400 416 417 407 432 462 388 351 334
244 238 244 248 248 247 241 248 251 258 267 269 278 290 415 406 399 382 356 338 325 322 315 317 319 343 372 378 377 374 363 384 394 446 401 408 410 402 430 458 364 324 353
244 241 241 250 238 246 242 254 255 268 271 279 291 416 405 394 375 351 335 324 321 312 313 321 333 369 381 375 375 370 366 385 405 419 432 408 406 399 429 456 337 352 340
238 237 243 246 244 244 254 253 270 268 278 289 413 401 385 364 347 332 323 320 312 313 319 332 372 386 375 376 372 370 373 399 409 404 419 416 404 398 425 451 347 342 327
Wind_Speed
99 107 105 110 92 114 92 105 122 106 111 128 136 115 130 128 106 132 132 135 123 117 119 108 96 93 94 94 91 82 76 70 64 60 57 61 64 52 68 65 61 60 60
112 110 95 107 111 120 122 126 127 133 138 131 139 124 91 137 144 114 129 120 121 112 95 94 94 95 94 90 85 79 75 74 68 61 59 58 60 64 64 65 68 65 64
115 117 104 112 124 116 114 97 131 130 105 139 132 113 133 129 135 128 117 113 102 89 90 94 94 92 89 86 81 79 76 74 76 76 68 69 76 73 72 71 69 71 70
115 116 106 125 123 118 123 132 138 139 119 60 73 112 132 137 120 112 104 102 97 95 91 94 92 93 89 84 83 79 79 75 81 84 91 87 85 80 74 71 72 73 74
112 125 112 112 130 127 131 141 140 123 95 121 137 132 128 117 112 94 101 99 104 95 94 92 93 92 88 84 82 84 83 80 91 92 91 90 77 69 68 66 67 69 75
107 127 117 116 134 135 82 123 127 50 57 137 134 127 112 111 107 101 104 110 105 93 95 95 92 92 87 86 85 87 89 89 95 93 91 76 70 69 66 64 63 65 68
99 122 121 123 136 80 135 77 80 137 137 137 115 109 104 93 94 108 104 112 97 92 93 93 93 89 88 87 87 90 98 104 100 96 82 73 69 68 65 61 58 57 57
130 128 130 133 136 131 72 135 136 137 132 108 113 110 106 106 106 108 121 91 93 94 94 93 91 90 90 90 90 96 105 102 100 84 77 72 70 67 60 51 46 43 46
125 111 95 132 132 116 131 118 126 117 86 107 103 110 108 107 116 109 98 91 93 92 92 94 91 93 94 88 95 102 104 101 89 78 75 72 68 62 55 45 40 37 39
128 128 122 126 122 108 114 122 120 100 106 105 105 102 106 116 111 105 90 93 93 94 91 91 93 92 92 97 94 106 104 96 75 72 70 69 64 57 54 48 37 34 38
124 119 104 52 117 113 109 100 109 107 106 106 103 105 114 108 98 92 86 90 93 94 88 91 92 95 101 101 110 107 102 77 72 68 64 62 55 53 50 47 42 34 40
46 105 108 101 101 100 98 105 107 106 106 108 106 110 117 97 97 91 86 87 89 87 89 83 93 99 105 106 106 106 84 73 70 66 60 54 50 48 47 45 43 49 46
98 98 99 91 97 96 97 101 107 105 117 119 111 98 101 95 73 79 82 84 86 88 90 83 90 97 104 107 109 88 77 69 67 62 56 49 49 46 43 41 54 48 42
75 84 84 89 92 85 86 97 99 101 103 87 83 66 62 70 75 78 81 84 87 88 88 92 96 104 106 110 81 77 72 67 64 58 49 48 47 48 41 52 42 40 35
57 65 67 73 78 86 86 82 81 68 60 74 66 62 68 71 75 78 76 88 82 89 87 100 102 106 110 79 77 71 67 64 59 54 47 48 44 48 54 49 44 34 27
53 61 63 64 67 70 59 50 47 46 48 55 58 63 69 73 73 78 84 82 85 93 93 99 107 93 77 71 68 65 63 58 54 49 47 45 44 42 53 43 39 29 21
49 49 50 46 39 34 34 40 44 46 52 56 61 66 69 71 81 79 88 92 95 95 99 108 75 71 69 66 62 58 55 52 48 48 46 45 46 52 39 40 30 23 18
38 37 29 27 30 33 35 39 45 50 55 59 63 67 74 73 81 88 88 90 96 101 109 70 67 65 61 56 53 51 50 48 48 47 45 48 48 47 39 34 25 18 16
21 22 26 29 30 36 40 43 48 53 57 63 68 70 73 82 85 88 91 97 102 95 66 62 58 54 51 49 49 49 48 48 48 46 49 49 45 39 37 29 19 16 18
19 21 27 29 32 36 42 46 51 57 63 67 70 74 78 81 87 92 97 104 63 56 53 51 49 48 48 48 50 51 51 49 50 52 51 46 40 34 30 24 16 19 23
22 26 28 34 37 42 45 50 54 58 63 69 74 78 82 87 93 100 70 57 51 47 45 47 49 51 52 53 52 54 56 55 54 50 46 41 34 30 27 20 18 26 29
25 28 33 37 41 46 50 54 56 61 67 74 77 82 86 94 101 60 52 49 46 47 48 51 54 55 54 57 58 56 54 52 48 46 42 37 30 25 23 19 26 30 29
33 34 38 43 47 50 54 57 63 68 73 77 81 87 94 75 55 49 47 45 47 49 52 54 57 59 61 59 56 51 48 48 46 42 36 33 27 22 20 18 32 31 30
35 39 43 47 51 54 57 63 67 73 78 80 87 94 57 51 47 44 43 46 49 52 55 58 60 62 60 57 52 49 47 46 42 39 32 28 25 20 19 18 35 32 34
39 43 47 52 51 58 61 68 70 79 81 86 93 52 49 45 43 43 46 49 52 54 58 61 64 61 57 53 49 47 45 44 39 34 30 25 23 19 19 18 35 37 38
44 47 51 54 58 62 68 68 80 79 86 91 50 46 44 42 43 46 49 52 55 58 62 64 61 58 53 50 47 45 44 41 37 32 29 24 22 19 19 19 38 41 37
Wind_Direction
283 285 288 288 295 293 297 299 298 298 297 301 299 304 305 305 305 304 306 306 306 304 303 305 307 308 307 307 308 309 305 302 299 297 290 282 278 274 274 270 268 264 253
282 287 293 294 295 293 296 296 294 295 295 300 300 303 303 302 301 306 306 304 305 305 309 308 308 308 307 309 310 308 305 308 303 295 286 284 283 272 274 268 265 261 259
283 284 292 294 289 292 295 294 294 295 298 297 301 302 303 304 301 303 303 304 308 310 307 308 307 307 309 311 308 308 307 303 308 307 301 298 294 288 282 274 266 258 256
285 286 292 285 287 296 296 293 292 294 298 290 302 300 303 303 303 303 302 306 312 307 306 308 305 308 311 310 310 307 309 307 309 309 305 300 297 293 286 277 267 263 256
286 281 292 293 287 290 292 291 292 294 295 298 297 303 303 301 300 308 305 310 309 306 306 310 309 310 311 310 309 311 312 309 310 306 304 304 299 292 286 280 273 265 258
290 283 290 292 289 288 292 292 292 299 300 298 300 301 302 305 307 308 313 312 310 304 306 308 310 311 310 312 311 313 314 313 309 308 308 304 299 295 290 284 279 272 263
286 287 287 289 285 290 288 295 298 293 297 299 300 298 304 303 306 311 311 310 305 304 306 309 310 310 310 312 313 315 315 313 312 312 309 305 301 298 293 288 282 277 271
277 281 282 282 283 288 298 290 294 295 298 292 298 300 303 304 309 309 308 303 302 303 307 309 309 310 312 315 315 316 314 314 313 311 308 305 304 301 300 293 283 275 270
276 280 285 288 287 284 291 290 293 294 296 295 296 300 299 304 306 306 303 301 303 304 308 308 309 311 312 313 317 315 314 315 313 309 308 308 307 305 300 291 279 267 262
280 283 285 284 283 279 282 289 290 284 293 295 297 294 302 301 306 302 300 299 303 305 306 308 310 313 313 315 315 313 315 314 310 308 308 309 308 304 299 295 281 260 255
278 280 280 289 282 284 284 284 288 290 291 293 290 296 295 300 300 302 300 301 301 303 307 308 312 313 315 314 311 314 314 311 309 308 308 307 303 299 296 295 287 263 250
287 275 273 276 273 275 276 277 285 284 287 288 292 293 294 295 296 297 299 300 301 305 306 309 313 314 313 309 312 313 312 310 309 308 308 304 299 296 295 294 284 290 286
262 266 268 263 272 274 277 277 277 283 280 282 287 289 291 293 293 296 298 301 304 306 309 312 315 313 310 311 312 312 309 309 308 309 308 302 298 295 295 290 301 289 300
255 263 268 267 271 275 275 277 280 283 285 282 287 291 288 291 295 297 301 303 307 310 312 312 311 310 311 311 309 308 308 308 309 308 304 300 298 301 293 308 293 304 296
259 260 261 262 266 267 271 275 278 281 282 284 284 287 292 294 296 299 305 306 311 311 311 307 309 311 310 308 307 308 308 308 308 307 303 302 301 305 310 308 308 305 292
258 259 262 267 269 273 278 275 277 279 283 285 290 292 293 297 301 306 307 309 310 306 308 309 311 308 307 305 306 306 306 306 307 302 302 303 305 297 311 306 308 301 281
272 268 269 269 268 270 271 274 278 286 287 290 293 295 300 303 305 308 308 305 305 308 311 311 306 306 306 305 305 306 306 306 303 301 302 306 308 310 305 310 305 289 271
271 265 258 262 265 272 278 284 284 288 292 295 298 301 303 306 306 305 307 306 311 311 310 306 307 307 307 308 308 308 307 304 301 303 306 310 310 310 307 307 297 270 246
257 259 265 272 273 275 280 286 291 295 297 300 302 305 306 303 304 307 311 312 311 309 308 308 308 310 311 310 310 308 305 303 303 306 310 311 311 311 307 303 280 247 219
260 265 269 275 282 288 291 296 297 299 300 302 304 304 305 307 311 313 312 310 308 308 309 310 311 311 312 310 308 307 307 307 308 309 311 311 311 306 303 296 259 218 199
265 269 281 285 291 293 298 298 299 303 304 305 308 311 313 315 314 313 310 310 311 312 311 311 309 310 310 311 312 311 309 308 312 312 313 313 310 301 301 292 236 198 196
279 287 289 292 297 298 298 300 302 303 307 308 312 315 316 316 313 310 310 309 309 308 308 308 309 311 313 313 314 313 313 313 313 311 310 310 305 296 294 283 208 194 197
284 291 294 295 297 301 303 305 304 308 311 314 316 318 317 312 310 309 308 305 305 306 309 310 312 314 314 316 315 314 313 314 312 312 306 304 300 289 284 273 197 196 199
294 292 298 302 304 306 305 308 309 311 315 317 318 318 311 310 309 308 305 305 306 309 311 313 314 315 317 316 314 313 312 314 313 314 303 296 292 280 274 264 196 205 192
297 299 301 307 305 307 306 310 310 315 317 319 319 312 310 309 308 306 306 307 310 312 314 314 314 317 316 314 313 312 313 314 313 311 305 289 283 269 265 257 200 194 191
298 301 305 307 307 307 310 311 316 316 319 319 313 311 310 310 308 308 310 311 312 313 314 315 318 318 315 314 313 312 313 314 311 307 303 285 274 258 256 246 197 194 195